Location: Bacharowice
(49.9333°N, 19.5833°E)
Time: 02:10:15
(UTC+00:00)

Cosmos 2344 - Pass Details

Date: 11 May 2021
Orbit: 1239 x 3003 km, 63.3° (Epoch: 22 June)

Event Time Altitude Azimuth Distance (km) Brightness Sun altitude
Rises 23:28:58 0° 317° (NW) 4,565 7.0 -21.0°
Reaches altitude 10° 23:31:37 10° 313° (NW) 3,726 6.4 -20.9°
Maximum altitude 23:40:43 60° 237° (WSW) 2,121 4.4 -20.5°
Enters shadow 23:51:07 16° 165° (SSE) 4,405 5.9 -20.0°
